Погода в Новочеркасском

Россия / Орловская область     52°42′16″N   35°48′22″E
темп.,
°C
ветер,
м/с
пор.,
м/с
влажн.,
%
обл.,
%
осадки,
мм/ч
давл.,
гПа
погр.,
м
8 августа, пн
пн800:00+19ссв71380100 0.0 1019419
03:00+19всв41073100 0.0 1019298
06:00+19всв247699 0.0 1019117
09:00+22ссв226944 0.0 1020397
12:00+26св225011 0.0 1019993
15:00+28с22425 0.0 10181772
18:00+27с335274 0.0 1018170
21:00+21с368292 0.1 1019121
9 августа, вт
вт900:00+20ссв248496 0.1 1019110
03:00+19ссз239085 2.0 101954
06:00+17ссз229398 0.1 101957
09:00+20сз2281100 0.1 1019272
12:00+24ссз3366100 0.0 1019798
15:00+24ссз2267100 0.0 1019978
18:00+22с4575100 0.1 1019620
21:00+19ссв4990100 1.6 1019332
10 августа, ср
ср1000:00+17ссв4992100 0.1 1020346
03:00+17с4893100 0.2 1020300
06:00+15ссв4895100 0.4 1020274
09:00+16ссв4595100 0.9 1021242
12:00+17ссв458799 0.1 1021367
15:00+20ссв457498 0.1 1020635
18:00+21св456976 0.0 1021677
21:00+17св5118661 0.0 1020339
11 августа, чт
чт1100:00+16св4119480 0.0 1021313
03:00+16св5138680 0.0 1021359
06:00+15св61381100 0.0 1022354
09:00+19св7116599 0.0 1023537
12:00+23всв785117 0.0 10231024
15:00+25св67484 0.0 10221177
18:00+24св57570 0.0 1022641
21:00+18св37730 0.0 1023120
12 августа, пт
пт1200:00+16св37760 0.0 1024119
03:00+15св47750 0.0 1024119
06:00+14св367323 0.0 1025111
09:00+20св46570 0.0 1025364
12:00+24св45463 0.0 1024833
15:00+26св44410 0.0 10231201
18:00+25св35510 0.0 1023297
21:00+19св46650 0.0 102388